Killington, USA 16 day weather forecast

Slopes altitude range 355 m - 1285m

Number of lifts: 20 Pistes: 135km

In some cases the lift and piste totals shown are for the ski domain (e.g. Three Valleys) rather than individual resort (e.g. Courchevel)

Overview

The 16 day weather forecast is fully updated 4 times every day.

    • Thu 21 FEB 2019
    • Thu 21
    • -5C 3C
    • Fri 22 FEB 2019
    • Fri 22
    • -6C -4C
    • Sat 23 FEB 2019
    • Sat 23
    • -9C -8C
    • Sun 24 FEB 2019
    • Sun 24
    • -2C 1C
    • Mon 25 FEB 2019
    • Mon 25
    • -3C 0C
    • Tue 26 FEB 2019
    • Tue 26
    • -17C -15C
    • Wed 27 FEB 2019
    • Wed 27
    • -14C -14C
    • Thu 28 FEB 2019
    • Thu 28
    • -16C -12C
    • Fri 01 MAR 2019
    • Fri 01
    • -18C -17C
    • Sat 02 MAR 2019
    • Sat 02
    • -5C -1C
    • Sun 03 MAR 2019
    • Sun 03
    • -15C -10C
    • Mon 04 MAR 2019
    • Mon 04
    • -22C -14C
    • Tue 05 MAR 2019
    • Tue 05
    • -22C -16C
    • Wed 06 MAR 2019
    • Wed 06
    • -18C -15C
    • Thu 07 MAR 2019
    • Thu 07
    • -15C -10C
    • Fri 08 MAR 2019
    • Fri 08
    • -10C -6C

Date:

Time Type 0°C level Temp Chill Snow Cloud Speed Gust Dir Press
18:00 661m 3°C 3_14 0cm 92% 14mph 28mph 1011mB
21:00 592m 1°C 1_13 0cm 100% 13mph 29mph 1012mB
0:00 192m -1°C -1_9 0cm 100% 9mph 29mph 1015mB
3:00 2m -3°C -3_9 0cm 100% 9mph 27mph 1018mB
6:00 0m -4°C -4_8 0cm 75% 8mph 24mph 1020mB
9:00 0m -5°C -5_6 0cm 84% 6mph 23mph 1023mB
12:00 0m -4°C -4_3 0cm 89% 3mph 5mph 1026mB
15:00 32m -2°C -2_4 0cm 54% 4mph 11mph 1028mB
18:00 314m -1°C -1_6 0cm 48% 6mph 10mph 1029mB
21:00 345m -1°C -1_6 0cm 47% 6mph 12mph 1029mB
0:00 0m -5°C -5_3 0cm 40% 3mph 4mph 1032mB
3:00 0m -7°C -7_0 0cm 5% 0mph 1mph 1033mB
6:00 0m -8°C -8_1 0cm 12% 1mph 2mph 1034mB
9:00 0m -8°C -8_1 0cm 44% 1mph 1mph 1034mB
12:00 0m -8°C -8_2 0cm 44% 2mph 2mph 1034mB
15:00 115m -2°C -2_2 0cm 64% 2mph 3mph 1033mB
18:00 412m 1°C 1_3 0cm 82% 3mph 5mph 1030mB
21:00 480m 1°C 1_2 0cm 100% 2mph 6mph 1027mB
0:00 3m -3°C -3_3 0cm 100% 3mph 4mph 1027mB
3:00 6m -3°C -3_4 0cm 98% 4mph 4mph 1024mB
6:00 4m -3°C -3_4 0cm 99% 4mph 5mph 1021mB
9:00 167m -2°C -2_5 0cm 100% 5mph 9mph 1015mB
12:00 511m 1°C 1_9 0cm 100% 9mph 33mph 1009mB
15:00 3155m 3°C 3_12 0cm 100% 12mph 38mph 1001mB
18:00 2479m 5°C 5_6 0cm 100% 6mph 21mph 994mB
21:00 1587m 4°C 4_8 0cm 100% 8mph 33mph 990mB
0:00 1012m 4°C 4_18 0cm 87% 18mph 40mph 990mB
3:00 627m 1°C 1_18 0cm 58% 18mph 43mph 990mB
6:00 436m 0°C 0_20 1cm 68% 20mph 44mph 990mB
9:00 242m -1°C -1_21 1cm 97% 21mph 45mph 990mB
12:00 4m 0°C 0_22 1cm 93% 22mph 43mph 995mB
15:00 0m -3°C -3_23 1cm 96% 23mph 42mph 1001mB
18:00 0m -3°C -3_25 1cm 98% 25mph 47mph 1006mB
21:00 0m -7°C -7_23 0cm 100% 23mph 46mph 1011mB
0:00 0m -10°C -10_20 0cm 84% 20mph 42mph 1018mB
3:00 0m -13°C -13_16 0cm 0% 16mph 35mph 1022mB
6:00 0m -15°C -15_12 0cm 0% 12mph 26mph 1025mB
9:00 0m -16°C -16_10 0cm 0% 10mph 23mph 1028mB
12:00 0m -15°C -15_8 0cm 0% 8mph 20mph 1031mB
15:00 0m -14°C -14_10 0cm 20% 10mph 19mph 1031mB
18:00 0m -10°C -10_11 0cm 11% 11mph 20mph 1030mB
21:00 0m -10°C -10_11 0cm 0% 11mph 21mph 1030mB
0:00 0m -12°C -12_5 0cm 0% 5mph 17mph 1032mB
3:00 0m -14°C -14_2 0cm 14% 2mph 3mph 1032mB
6:00 0m -14°C -14_2 0cm 37% 2mph 3mph 1031mB
9:00 0m -14°C -14_3 1cm 87% 3mph 4mph 1030mB
12:00 0m -14°C -14_3 1cm 94% 3mph 5mph 1028mB
15:00 0m -12°C -12_4 1cm 100% 4mph 6mph 1027mB
18:00 0m -10°C -10_4 2cm 100% 4mph 6mph 1023mB
21:00 0m -10°C -10_4 2cm 99% 4mph 6mph 1022mB
0:00 0m -10°C -10_3 4cm 100% 3mph 5mph 1022mB
3:00 0m -10°C -10_3 1cm 100% 3mph 4mph 1022mB
6:00 0m -11°C -11_3 1cm 88% 3mph 4mph 1022mB
9:00 0m -14°C -14_3 0cm 55% 3mph 4mph 1023mB
12:00 0m -12°C -12_3 0cm 47% 3mph 3mph 1024mB
15:00 0m -7°C -7_2 0cm 31% 2mph 3mph 1024mB
18:00 0m -4°C -4_3 0cm 18% 3mph 3mph 1023mB
21:00 0m -5°C -5_4 0cm 11% 4mph 5mph 1023mB
0:00 0m -11°C -11_1 0cm 6% 1mph 2mph 1025mB
3:00 0m -16°C -16_2 0cm 0% 2mph 3mph 1027mB
6:00 0m -17°C -17_2 0cm 0% 2mph 3mph 1028mB
9:00 0m -18°C -18_2 0cm 0% 2mph 2mph 1029mB
12:00 0m -17°C -17_2 0cm 0% 2mph 3mph 1030mB
15:00 0m -7°C -7_1 0cm 0% 1mph 1mph 1030mB
18:00 11m -3°C -3_0 0cm 0% 0mph 1mph 1027mB
21:00 0m -4°C -4_3 0cm 6% 3mph 6mph 1025mB
0:00 0m -8°C -8_4 0cm 40% 4mph 4mph 1024mB
3:00 0m -7°C -7_5 1cm 100% 5mph 11mph 1020mB
6:00 0m -7°C -7_8 2cm 100% 8mph 27mph 1014mB
9:00 44m -5°C -5_12 5cm 100% 12mph 36mph 1007mB
12:00 314m -1°C -1_12 13cm 100% 12mph 33mph 1002mB
15:00 425m 0°C 0_11 4cm 100% 11mph 22mph 1003mB
18:00 160m 0°C 0_14 5cm 100% 14mph 24mph 1004mB
21:00 0m -4°C -4_15 1cm 100% 15mph 29mph 1006mB
0:00 0m -9°C -9_13 1cm 100% 13mph 30mph 1009mB
3:00 0m -11°C -11_12 0cm 98% 12mph 30mph 1010mB
6:00 0m -11°C -11_9 1cm 97% 9mph 29mph 1011mB
9:00 0m -12°C -12_12 1cm 100% 12mph 28mph 1013mB
12:00 0m -10°C -10_11 1cm 97% 11mph 25mph 1017mB
Morning 0.0104167mm 0.0625 0m -15°C -15_7 0cm 82% 7mph 20mph 1020mB
Afternoon 0mm 0 0m -14°C -14_3 0cm 48% 3mph 5mph 1024mB
Morning 0.0208333mm 0.0625 0m -21°C -21_4 0cm 70% 4mph 13mph 1022mB
Afternoon 0mm 0 0m -16°C -16_4 0cm 64% 4mph 6mph 1022mB
Morning 0.0208333mm 0 0m -21°C -21_6 0cm 71% 6mph 26mph 1020mB
Afternoon 0.015625mm 0 0m -15°C -15_5 0cm 60% 5mph 11mph 1026mB
Morning 0.0104167mm 0 0m -17°C -17_5 0cm 55% 5mph 9mph 1030mB
Afternoon 0mm 0 0m -10°C -10_1 0cm 16% 1mph 2mph 1033mB
Morning 0.00520833mm 0 0m -13°C -13_2 0cm 49% 2mph 3mph 1030mB
Afternoon 0mm 0 0m -6°C -6_3 0cm 23% 3mph 4mph 1030mB
Morning 0mm 0 110m -9°C -9_3 0cm 47% 3mph 4mph 1028mB
Afternoon 0mm 0 0m -2°C -2_5 0cm 45% 5mph 10mph 1028mB

16 day outlook at a glance

Forecast issued: 21/02/2019 18:45:40

Chat

Your comments and questions. In a resort? Let us know what it's like!


Characters left 250

For terms and conditions see Readers Comments on the Cookie and privacy policy page.